START_TIME,STEP,MOV.,M15,t_acc.,M20,t_acc.
1989-08-27T21:00:44.410 ,7,0,0.,24.0,0.,24.0
1989-08-27T21:01:08.410 ,6,1,0.,24.0,0.,24.0
1989-08-27T21:01:32.410 ,6,0,0.,24.0,0.,24.0
1989-08-27T21:01:56.410 ,5,1,0.,24.0,0.,24.0
1989-08-27T21:02:20.410 ,5,0,0.,24.0,0.,24.0
1989-08-27T21:02:44.410 ,4,1,0.,24.0,0.,24.0
1989-08-27T21:03:08.410 ,4,0,0.,24.0,0.,24.0
1989-08-27T21:03:32.410 ,3,1,0.,24.0,0.,24.0
1989-08-27T21:03:56.410 ,3,0,0.,24.0,0.,24.0
1989-08-27T21:04:20.410 ,2,1,0.,24.0,0.,24.0
1989-08-27T21:04:44.410 ,2,0,0.,24.0,0.,24.0
1989-08-27T21:05:08.410 ,1,1,0.,24.0,0.,24.0
1989-08-27T21:05:32.410 ,1,0,0.,24.0,0.,24.0
1989-08-27T21:05:56.410 ,0,1,0.,24.0,0.,24.0
1989-08-27T21:06:20.410 ,0,0,0.,24.0,0.,24.0
1989-08-27T21:06:44.410 ,0,1,0.,24.0,0.,24.0
1989-08-27T21:07:08.410 ,0,0,0.,24.0,0.,24.0
1989-08-27T21:07:32.410 ,1,1,0.,24.0,0.,24.0
1989-08-27T21:07:56.410 ,1,0,0.,24.0,0.,24.0
1989-08-27T21:08:20.410 ,2,1,0.,24.0,0.,24.0
1989-08-27T21:08:44.410 ,2,0,0.,24.0,0.,24.0
1989-08-27T21:09:08.410 ,3,1,0.,24.0,0.,24.0
1989-08-27T21:09:32.410 ,3,0,0.,24.0,0.,24.0
1989-08-27T21:09:56.410 ,4,1,0.,24.0,0.,24.0
1989-08-27T21:10:20.410 ,4,0,0.,24.0,0.,24.0
1989-08-27T21:10:44.410 ,5,1,0.,24.0,0.,24.0
1989-08-27T21:11:08.410 ,5,0,0.,24.0,0.,24.0
1989-08-27T21:11:32.410 ,6,1,0.,24.0,0.,24.0
1989-08-27T21:11:56.410 ,6,0,0.,24.0,0.,24.0
1989-08-27T21:12:20.410 ,7,1,0.,24.0,0.,24.0
1989-08-27T21:12:44.410 ,7,0,0.,24.0,0.,24.0
1989-08-27T21:13:08.410 ,7,1,0.,24.0,0.,24.0
1989-08-27T21:13:32.410 ,7,0,0.,24.0,0.,24.0
1989-08-27T21:13:56.410 ,6,1,0.,24.0,0.,24.0
1989-08-27T21:14:20.410 ,6,0,0.,24.0,0.,24.0
1989-08-27T21:14:44.410 ,5,1,0.,24.0,0.,24.0
1989-08-27T21:15:08.410 ,5,0,0.,24.0,0.,24.0
1989-08-27T21:15:32.410 ,4,1,0.,24.0,0.,24.0
1989-08-27T21:15:56.410 ,4,0,0.,24.0,0.,24.0
1989-08-27T21:16:20.410 ,3,1,0.,24.0,0.,24.0
1989-08-27T21:16:44.410 ,3,0,0.,24.0,0.,24.0
1989-08-27T21:17:08.410 ,2,1,0.,24.0,0.,24.0
1989-08-27T21:17:32.410 ,2,0,0.,24.0,0.,24.0
1989-08-27T21:17:56.410 ,1,1,0.,24.0,0.,24.0
1989-08-27T21:18:20.410 ,1,0,0.,24.0,0.,24.0
1989-08-27T21:18:44.410 ,0,1,0.,24.0,0.,24.0
1989-08-27T21:19:08.410 ,0,0,0.,24.0,0.,24.0
1989-08-27T21:19:32.410 ,0,1,0.,24.0,0.,24.0
1989-08-27T21:19:56.410 ,0,0,0.,24.0,0.,24.0
1989-08-27T21:20:20.410 ,1,1,0.,24.0,0.,24.0
1989-08-27T21:20:44.410 ,1,0,0.,24.0,0.,24.0
1989-08-27T21:21:08.410 ,2,1,0.,24.0,0.,24.0
1989-08-27T21:21:32.410 ,2,0,0.,24.0,0.,24.0
1989-08-27T21:21:56.410 ,3,1,0.,24.0,0.,24.0
1989-08-27T21:22:20.410 ,3,0,0.,24.0,0.,24.0
1989-08-27T21:22:44.410 ,4,1,0.,24.0,0.,24.0
1989-08-27T21:23:08.410 ,4,0,0.,24.0,0.,24.0
1989-08-27T21:23:32.410 ,5,1,0.,24.0,0.,24.0
1989-08-27T21:23:56.410 ,5,0,0.,24.0,0.,24.0
1989-08-27T21:24:20.410 ,6,1,0.,24.0,0.,24.0
1989-08-27T21:24:44.410 ,6,0,0.,24.0,0.,24.0
1989-08-27T21:25:08.410 ,7,1,0.,24.0,0.,24.0
1989-08-27T21:25:32.410 ,7,0,0.,24.0,0.,24.0
1989-08-27T21:25:56.410 ,7,1,0.,24.0,0.,24.0
1989-08-27T21:26:20.410 ,7,0,0.,24.0,0.,24.0
1989-08-27T21:26:44.410 ,6,1,0.,24.0,0.,24.0
1989-08-27T21:27:08.410 ,6,0,0.,24.0,0.,24.0
1989-08-27T21:27:32.410 ,5,1,0.,24.0,0.,24.0
1989-08-27T21:27:56.410 ,5,0,0.,24.0,0.,24.0
1989-08-27T21:28:20.410 ,4,1,0.,24.0,0.,24.0
1989-08-27T21:28:44.410 ,4,0,0.,24.0,0.,24.0
1989-08-27T21:29:08.410 ,3,1,0.,24.0,0.,24.0
1989-08-27T21:29:32.410 ,3,0,0.,24.0,0.,24.0
1989-08-27T21:29:56.410 ,2,1,0.,24.0,0.,24.0
1989-08-27T21:30:20.410 ,2,0,0.,24.0,0.,24.0
1989-08-27T21:30:44.410 ,1,1,0.,24.0,0.,24.0
1989-08-27T21:31:08.410 ,1,0,0.,24.0,0.,24.0
1989-08-27T21:31:32.410 ,0,1,0.,24.0,0.,24.0
1989-08-27T21:31:56.410 ,0,0,0.,24.0,0.,24.0
1989-08-27T21:32:20.410 ,0,1,0.,24.0,0.,24.0
1989-08-27T21:32:44.410 ,0,0,0.,24.0,0.,24.0
1989-08-27T21:33:08.410 ,1,1,0.,24.0,0.,24.0
1989-08-27T21:33:32.410 ,1,0,0.,24.0,0.,24.0
1989-08-27T21:33:56.410 ,2,1,0.,24.0,0.,24.0
1989-08-27T21:34:20.410 ,2,0,0.,24.0,0.,24.0
1989-08-27T21:34:44.410 ,3,1,0.,24.0,0.,24.0
1989-08-27T21:35:08.410 ,3,0,0.,24.0,0.,24.0
1989-08-27T21:35:32.410 ,4,1,0.,24.0,0.,24.0
1989-08-27T21:35:56.410 ,4,0,0.,24.0,0.,24.0
1989-08-27T21:36:20.410 ,5,1,0.,24.0,0.,24.0
1989-08-27T21:36:44.410 ,5,0,0.,24.0,0.,24.0
1989-08-27T21:37:08.410 ,6,1,0.,24.0,0.,24.0
1989-08-27T21:37:32.410 ,6,0,0.,24.0,0.,24.0
1989-08-27T21:37:56.410 ,7,1,0.,24.0,0.,24.0
1989-08-27T21:38:20.410 ,7,0,0.,24.0,0.,24.0
1989-08-27T21:38:44.410 ,7,1,0.,24.0,0.,24.0
1989-08-27T21:39:08.410 ,7,0,0.,24.0,0.,24.0
1989-08-27T21:39:32.410 ,6,1,0.,24.0,0.,24.0
1989-08-27T21:39:56.410 ,6,0,0.,24.0,0.,24.0
1989-08-27T21:40:20.410 ,5,1,0.,24.0,0.,24.0
1989-08-27T21:40:44.410 ,5,0,0.,24.0,0.,24.0
1989-08-27T21:41:08.410 ,4,1,0.,24.0,0.,24.0
1989-08-27T21:41:32.410 ,4,0,0.,24.0,0.,24.0
1989-08-27T21:41:56.410 ,3,1,0.,24.0,0.,24.0
1989-08-27T21:42:20.410 ,3,0,0.,24.0,0.,24.0
1989-08-27T21:42:44.400 ,2,1,0.,24.0,0.,24.0
1989-08-27T21:43:08.400 ,2,0,0.,24.0,0.,24.0
1989-08-27T21:43:32.400 ,1,1,0.,24.0,0.,24.0
1989-08-27T21:43:56.400 ,1,0,0.,24.0,0.,24.0
1989-08-27T21:44:20.400 ,0,1,0.,24.0,0.,24.0
1989-08-27T21:44:44.400 ,0,0,0.,24.0,0.,24.0
1989-08-27T21:45:08.400 ,0,1,0.,24.0,0.,24.0
1989-08-27T21:45:32.400 ,0,0,0.,24.0,0.,24.0
1989-08-27T21:45:56.400 ,1,1,0.,24.0,0.,24.0
1989-08-27T21:46:20.400 ,1,0,0.,24.0,0.,24.0
1989-08-27T21:46:44.400 ,2,1,0.,24.0,0.,24.0
1989-08-27T21:47:08.400 ,2,0,0.,24.0,0.,24.0
1989-08-27T21:47:32.400 ,3,1,0.,24.0,0.,24.0
1989-08-27T21:47:56.400 ,3,0,0.,24.0,0.,24.0
1989-08-27T21:48:20.400 ,4,1,0.,24.0,0.,24.0
1989-08-27T21:48:44.400 ,4,0,0.,24.0,0.,24.0
1989-08-27T21:49:08.400 ,5,1,0.,24.0,0.,24.0
1989-08-27T21:49:32.400 ,5,0,0.,24.0,0.,24.0
1989-08-27T21:49:56.400 ,6,1,0.,24.0,0.,24.0
1989-08-27T21:50:20.400 ,6,0,0.,24.0,0.,24.0
1989-08-27T21:50:44.400 ,7,1,0.,24.0,0.,24.0
1989-08-27T21:51:08.400 ,7,0,0.,24.0,0.,24.0
1989-08-27T21:51:32.400 ,7,1,0.,24.0,0.,24.0
1989-08-27T21:51:56.400 ,7,0,0.,24.0,0.,24.0
1989-08-27T21:52:20.400 ,6,1,0.,24.0,0.,24.0
1989-08-27T21:52:44.400 ,6,0,0.,24.0,0.,24.0
1989-08-27T21:53:08.400 ,5,1,0.,24.0,0.,24.0
1989-08-27T21:53:32.400 ,5,0,0.,24.0,0.,24.0
1989-08-27T21:53:56.400 ,4,1,0.,24.0,0.,24.0
1989-08-27T21:54:20.400 ,4,0,0.,24.0,0.,24.0
1989-08-27T21:54:44.400 ,3,1,0.,24.0,0.,24.0
1989-08-27T21:55:08.400 ,3,0,0.,24.0,0.,24.0
1989-08-27T21:55:32.400 ,2,1,0.,24.0,0.,24.0
1989-08-27T21:55:56.400 ,2,0,0.,24.0,0.,24.0
1989-08-27T21:56:20.400 ,1,1,0.,24.0,0.,24.0
1989-08-27T21:56:44.400 ,1,0,0.,24.0,0.,24.0
1989-08-27T21:57:08.400 ,0,1,0.,24.0,0.,24.0
1989-08-27T21:57:32.400 ,0,0,0.,24.0,0.,24.0
1989-08-27T21:57:56.400 ,0,1,0.,24.0,0.,24.0
1989-08-27T21:58:20.400 ,0,0,0.,24.0,0.,24.0
1989-08-27T21:58:44.400 ,1,1,0.,24.0,0.,24.0
1989-08-27T21:59:08.400 ,1,0,0.,24.0,0.,24.0
1989-08-27T21:59:32.400 ,2,1,0.,24.0,0.,24.0
1989-08-27T21:59:56.400 ,2,0,0.,24.0,0.,24.0
1989-08-27T22:00:20.400 ,3,1,0.,24.0,0.,24.0
1989-08-27T22:00:44.400 ,3,0,0.,24.0,0.,24.0
1989-08-27T22:01:08.400 ,4,1,0.,24.0,0.,24.0
1989-08-27T22:01:32.400 ,4,0,0.,24.0,0.,24.0
1989-08-27T22:01:56.400 ,5,1,0.,24.0,0.,24.0
1989-08-27T22:02:20.400 ,5,0,0.,24.0,0.,24.0
1989-08-27T22:02:44.400 ,6,1,0.,24.0,0.,24.0
1989-08-27T22:03:08.400 ,6,0,0.,24.0,0.,24.0
1989-08-27T22:03:32.400 ,7,1,0.,24.0,0.,24.0
1989-08-27T22:03:56.400 ,7,0,0.,24.0,0.,24.0
1989-08-27T22:04:20.400 ,7,1,0.,24.0,0.,24.0
1989-08-27T22:04:44.400 ,7,0,0.,24.0,0.,24.0
1989-08-27T22:05:08.400 ,6,1,0.,24.0,0.,24.0
1989-08-27T22:05:32.400 ,6,0,0.,24.0,0.,24.0
1989-08-27T22:05:56.400 ,5,1,0.,24.0,0.,24.0
1989-08-27T22:06:20.400 ,5,0,0.,24.0,0.,24.0
1989-08-27T22:06:44.400 ,4,1,0.,24.0,0.,24.0
1989-08-27T22:07:08.400 ,4,0,0.,24.0,0.,24.0
1989-08-27T22:07:32.400 ,3,1,0.,24.0,0.,24.0
1989-08-27T22:07:56.400 ,3,0,0.,24.0,0.,24.0
1989-08-27T22:08:20.400 ,2,1,0.,24.0,0.,24.0
1989-08-27T22:08:44.400 ,2,0,0.,24.0,0.,24.0
1989-08-27T22:09:08.400 ,1,1,0.,24.0,0.,24.0
1989-08-27T22:09:32.400 ,1,0,0.,24.0,0.,24.0
1989-08-27T22:09:56.400 ,0,1,0.,24.0,0.,24.0
1989-08-27T22:10:20.400 ,0,0,0.,24.0,0.,24.0
1989-08-27T22:10:44.400 ,0,1,0.,24.0,0.,24.0
1989-08-27T22:11:08.400 ,0,0,0.,24.0,0.,24.0
1989-08-27T22:11:32.400 ,1,1,0.,24.0,0.,24.0
1989-08-27T22:11:56.400 ,1,0,0.,24.0,0.,24.0
1989-08-27T22:12:20.400 ,2,1,0.,24.0,0.,24.0
1989-08-27T22:12:44.400 ,2,0,0.,24.0,0.,24.0
1989-08-27T22:13:08.400 ,3,1,0.,24.0,0.,24.0
1989-08-27T22:13:32.400 ,3,0,0.,24.0,0.,24.0
1989-08-27T22:13:56.400 ,4,1,0.,24.0,0.,24.0
1989-08-27T22:14:20.400 ,4,0,0.,24.0,0.,24.0
1989-08-27T22:14:44.400 ,5,1,0.,24.0,0.,24.0
1989-08-27T22:15:08.400 ,5,0,0.,24.0,0.,24.0
1989-08-27T22:15:32.400 ,6,1,0.,24.0,0.,24.0
1989-08-27T22:15:56.400 ,6,0,0.,24.0,0.,24.0
1989-08-27T22:16:20.400 ,7,1,0.,24.0,0.,24.0
1989-08-27T22:16:44.400 ,7,0,0.,24.0,0.,24.0
1989-08-27T22:17:08.400 ,7,1,0.,24.0,0.,24.0
1989-08-27T22:17:32.400 ,7,0,0.,24.0,0.,24.0
1989-08-27T22:17:56.400 ,6,1,0.,24.0,0.,24.0
1989-08-27T22:18:20.400 ,6,0,0.,24.0,0.,24.0
1989-08-27T22:18:44.400 ,5,1,0.,24.0,0.,24.0
1989-08-27T22:19:08.400 ,5,0,0.,24.0,0.,24.0
1989-08-27T22:19:32.400 ,4,1,0.,24.0,0.,24.0
1989-08-27T22:19:56.400 ,4,0,0.,24.0,0.,24.0
1989-08-27T22:20:20.400 ,3,1,0.,24.0,0.,24.0
1989-08-27T22:20:44.400 ,3,0,0.,24.0,0.,24.0
1989-08-27T22:21:08.400 ,2,1,0.,24.0,0.,24.0
1989-08-27T22:21:32.400 ,2,0,0.,24.0,0.,24.0
1989-08-27T22:21:56.400 ,1,1,0.,24.0,0.,24.0
1989-08-27T22:22:20.400 ,1,0,0.,24.0,0.,24.0
1989-08-27T22:22:44.400 ,0,1,0.,24.0,0.,24.0
1989-08-27T22:23:08.400 ,0,0,0.,24.0,0.,24.0
1989-08-27T22:23:32.400 ,0,1,0.,24.0,0.,24.0
1989-08-27T22:23:56.400 ,0,0,0.,24.0,0.,24.0
1989-08-27T22:24:20.400 ,1,1,0.,24.0,0.,24.0
1989-08-27T22:24:44.400 ,1,0,0.,24.0,0.,24.0
1989-08-27T22:25:08.400 ,2,1,0.,24.0,0.,24.0
1989-08-27T22:25:32.400 ,2,0,0.,24.0,0.,24.0
1989-08-27T22:25:56.400 ,3,1,0.,24.0,0.,24.0
1989-08-27T22:26:20.400 ,3,0,0.,24.0,0.,24.0
1989-08-27T22:26:44.400 ,4,1,0.,24.0,0.,24.0
1989-08-27T22:27:08.400 ,4,0,0.,24.0,0.,24.0
1989-08-27T22:27:32.400 ,5,1,0.,24.0,0.,24.0
1989-08-27T22:27:56.400 ,5,0,0.,24.0,0.,24.0
1989-08-27T22:28:20.400 ,6,1,0.,24.0,0.,24.0
1989-08-27T22:28:44.400 ,6,0,0.,24.0,0.,24.0
1989-08-27T22:29:08.400 ,7,1,0.,24.0,0.,24.0
1989-08-27T22:29:32.400 ,7,0,0.,24.0,0.,24.0
1989-08-27T22:29:56.400 ,7,1,0.,24.0,0.,24.0
1989-08-27T22:30:20.400 ,7,0,0.,24.0,0.,24.0
1989-08-27T22:30:44.400 ,6,1,0.,24.0,0.,24.0
1989-08-27T22:31:08.400 ,6,0,0.,24.0,0.,24.0
1989-08-27T22:31:32.400 ,5,1,0.,24.0,0.,24.0
1989-08-27T22:31:56.400 ,5,0,0.,24.0,0.,24.0
1989-08-27T22:32:20.400 ,4,1,0.,24.0,0.,24.0
1989-08-27T22:32:44.400 ,4,0,0.,24.0,0.,24.0
1989-08-27T22:33:08.400 ,3,1,0.,24.0,0.,24.0
1989-08-27T22:33:32.400 ,3,0,0.,24.0,0.,24.0
1989-08-27T22:33:56.400 ,2,1,0.,24.0,0.,24.0
1989-08-27T22:34:20.400 ,2,0,0.,24.0,0.,24.0
1989-08-27T22:34:44.400 ,1,1,0.,24.0,0.,24.0
1989-08-27T22:35:08.400 ,1,0,0.,24.0,0.,24.0
1989-08-27T22:35:32.400 ,0,1,0.,24.0,0.,24.0
1989-08-27T22:35:56.400 ,0,0,0.,24.0,0.,24.0
1989-08-27T22:36:20.400 ,0,1,0.,24.0,0.,24.0
1989-08-27T22:36:44.400 ,0,0,0.,24.0,0.,24.0
1989-08-27T22:37:08.400 ,1,1,0.,24.0,0.,24.0
1989-08-27T22:37:32.400 ,1,0,0.,24.0,0.,24.0
1989-08-27T22:37:56.400 ,2,1,0.,24.0,0.,24.0
1989-08-27T22:38:20.400 ,2,0,0.,24.0,0.,24.0
1989-08-27T22:38:44.400 ,3,1,0.,24.0,0.,24.0
1989-08-27T22:39:08.400 ,3,0,0.,24.0,0.,24.0
1989-08-27T22:39:32.400 ,4,1,0.,24.0,0.,24.0
1989-08-27T22:39:56.400 ,4,0,0.,24.0,0.,24.0
1989-08-27T22:40:20.400 ,5,1,0.,24.0,0.,24.0
1989-08-27T22:40:44.400 ,5,0,0.,24.0,0.,24.0
1989-08-27T22:41:08.400 ,6,1,0.,24.0,0.,24.0
1989-08-27T22:41:32.400 ,6,0,0.,24.0,0.,24.0
1989-08-27T22:41:56.400 ,7,1,0.,24.0,0.,24.0
1989-08-27T22:42:20.400 ,7,0,0.,24.0,0.,24.0
1989-08-27T22:42:44.400 ,7,1,0.,24.0,0.,24.0
1989-08-27T22:43:08.400 ,7,0,0.,24.0,0.,24.0
1989-08-27T22:43:32.400 ,6,1,0.,24.0,0.,24.0
1989-08-27T22:43:56.400 ,6,0,0.,24.0,0.,24.0
1989-08-27T22:44:20.400 ,5,1,0.,24.0,0.,24.0
1989-08-27T22:44:44.400 ,5,0,0.,24.0,0.,24.0
1989-08-27T22:45:08.400 ,4,1,0.,24.0,0.,24.0
1989-08-27T22:45:32.400 ,4,0,0.,24.0,0.,24.0
1989-08-27T22:45:56.400 ,3,1,0.,24.0,0.,24.0
1989-08-27T22:46:20.400 ,3,0,0.,24.0,0.,24.0
1989-08-27T22:46:44.400 ,2,1,0.,24.0,0.,24.0
1989-08-27T22:47:08.400 ,2,0,0.,24.0,0.,24.0
1989-08-27T22:47:32.400 ,1,1,0.,24.0,0.,24.0
1989-08-27T22:47:56.400 ,1,0,0.,24.0,0.,24.0
1989-08-27T22:48:20.400 ,0,1,0.,24.0,0.,24.0
1989-08-27T22:48:44.400 ,0,0,0.,24.0,0.,24.0
1989-08-27T22:49:08.400 ,0,1,0.,24.0,0.,24.0
1989-08-27T22:49:32.400 ,0,0,0.,24.0,0.,24.0
1989-08-27T22:49:56.400 ,1,1,0.,24.0,0.,24.0
1989-08-27T22:50:20.400 ,1,0,0.,24.0,0.,24.0
1989-08-27T22:50:44.400 ,2,1,0.,24.0,0.,24.0
1989-08-27T22:51:08.400 ,2,0,0.,24.0,0.,24.0
1989-08-27T22:51:32.400 ,3,1,0.,24.0,0.,24.0
1989-08-27T22:51:56.400 ,3,0,0.,24.0,0.,24.0
1989-08-27T22:52:20.400 ,4,1,0.,24.0,0.,24.0
1989-08-27T22:52:44.400 ,4,0,0.,24.0,0.,24.0
1989-08-27T22:53:08.400 ,5,1,0.,24.0,0.,24.0
1989-08-27T22:53:32.400 ,5,0,0.,24.0,0.,24.0
1989-08-27T22:53:56.400 ,6,1,0.,24.0,0.,24.0
1989-08-27T22:54:20.400 ,6,0,0.,24.0,0.,24.0
1989-08-27T22:54:44.400 ,7,1,0.,24.0,0.,24.0
1989-08-27T22:55:08.400 ,7,0,0.,24.0,0.,24.0
1989-08-27T22:55:32.400 ,7,1,0.,24.0,0.,24.0
1989-08-27T22:55:56.400 ,7,0,0.,24.0,0.,24.0
1989-08-27T22:56:20.400 ,6,1,0.,24.0,0.,24.0
1989-08-27T22:56:44.400 ,6,0,0.,24.0,0.,24.0
1989-08-27T22:57:08.400 ,5,1,0.,24.0,0.,24.0
1989-08-27T22:57:32.400 ,5,0,0.,24.0,0.,24.0
1989-08-27T22:57:56.400 ,4,1,0.,24.0,0.,24.0
1989-08-27T22:58:20.400 ,4,0,0.,24.0,0.,24.0
1989-08-27T22:58:44.400 ,3,1,0.,24.0,0.,24.0
1989-08-27T22:59:08.400 ,3,0,0.,24.0,0.,24.0
1989-08-27T22:59:32.400 ,2,1,0.,24.0,0.,24.0
1989-08-27T22:59:56.400 ,2,0,0.,24.0,0.,24.0
1989-08-27T23:00:20.400 ,1,1,0.,24.0,0.,24.0
1989-08-27T23:00:44.400 ,1,0,0.,24.0,0.,24.0
1989-08-27T23:01:08.400 ,0,1,0.,24.0,0.,24.0
1989-08-27T23:01:32.400 ,0,0,0.,24.0,0.,24.0
1989-08-27T23:01:56.400 ,0,1,0.,24.0,0.,24.0
1989-08-27T23:02:20.400 ,0,0,0.,24.0,0.,24.0
1989-08-27T23:02:44.400 ,1,1,0.,24.0,0.,24.0
1989-08-27T23:03:08.400 ,1,0,0.,24.0,0.,24.0
1989-08-27T23:03:32.400 ,2,1,0.,24.0,0.,24.0
1989-08-27T23:03:56.400 ,2,0,0.,24.0,0.,24.0
1989-08-27T23:04:20.400 ,3,1,0.,24.0,0.,24.0
1989-08-27T23:04:44.400 ,3,0,0.,24.0,0.,24.0
1989-08-27T23:05:08.400 ,4,1,0.,24.0,0.,24.0
1989-08-27T23:05:32.400 ,4,0,0.,24.0,0.,24.0
1989-08-27T23:05:56.400 ,5,1,0.,24.0,0.,24.0
1989-08-27T23:06:20.400 ,5,0,0.,24.0,0.,24.0
1989-08-27T23:06:44.400 ,6,1,0.,24.0,0.,24.0
1989-08-27T23:07:08.400 ,6,0,0.,24.0,0.,24.0
1989-08-27T23:07:32.400 ,7,1,0.,24.0,0.,24.0
1989-08-27T23:07:56.400 ,7,0,0.,24.0,0.,24.0
1989-08-27T23:08:20.400 ,7,1,0.,24.0,0.,24.0
1989-08-27T23:08:44.400 ,7,0,0.,24.0,0.,24.0
1989-08-27T23:09:08.400 ,6,1,0.,24.0,0.,24.0
1989-08-27T23:09:32.400 ,6,0,0.,24.0,0.,24.0
1989-08-27T23:09:56.400 ,5,1,0.,24.0,0.,24.0
1989-08-27T23:10:20.400 ,5,0,0.,24.0,0.,24.0
1989-08-27T23:10:44.400 ,4,1,0.,24.0,0.,24.0
1989-08-27T23:11:08.400 ,4,0,0.,24.0,0.,24.0
1989-08-27T23:11:32.400 ,3,1,0.,24.0,0.,24.0
1989-08-27T23:11:56.400 ,3,0,0.,24.0,0.,24.0
1989-08-27T23:12:20.400 ,2,1,0.,24.0,0.,24.0
1989-08-27T23:12:44.400 ,2,0,0.,24.0,0.,24.0
1989-08-27T23:13:08.400 ,1,1,0.,24.0,0.,24.0
1989-08-27T23:13:32.400 ,1,0,0.,24.0,0.,24.0
1989-08-27T23:13:56.400 ,0,1,0.,24.0,0.,24.0
1989-08-27T23:14:20.400 ,0,0,0.,24.0,0.,24.0
1989-08-27T23:14:44.400 ,0,1,0.,24.0,0.,24.0
1989-08-27T23:15:08.400 ,0,0,0.,24.0,0.,24.0
1989-08-27T23:15:32.400 ,1,1,0.,24.0,0.,24.0
1989-08-27T23:15:56.400 ,1,0,0.,24.0,0.,24.0
1989-08-27T23:16:20.400 ,2,1,0.,24.0,0.,24.0
1989-08-27T23:16:44.400 ,2,0,0.,24.0,0.,24.0
1989-08-27T23:17:08.400 ,3,1,0.,24.0,0.,24.0
1989-08-27T23:17:32.400 ,3,0,0.,24.0,0.,24.0
1989-08-27T23:17:56.400 ,4,1,0.,24.0,0.,24.0
1989-08-27T23:18:20.400 ,4,0,0.,24.0,0.,24.0
1989-08-27T23:18:44.400 ,5,1,0.,24.0,0.,24.0
1989-08-27T23:19:08.400 ,5,0,0.,24.0,0.,24.0
1989-08-27T23:19:32.400 ,6,1,0.,24.0,0.,24.0
1989-08-27T23:19:56.400 ,6,0,0.,24.0,0.,24.0
1989-08-27T23:20:20.400 ,7,1,0.,24.0,0.,24.0
1989-08-27T23:20:44.400 ,7,0,0.,24.0,0.,24.0
1989-08-27T23:21:08.400 ,7,1,0.,24.0,0.,24.0
1989-08-27T23:21:32.400 ,7,0,0.,24.0,0.,24.0
1989-08-27T23:21:56.400 ,6,1,0.,24.0,0.,24.0
1989-08-27T23:22:20.400 ,6,0,0.,24.0,0.,24.0
1989-08-27T23:22:44.400 ,5,1,0.,24.0,0.,24.0
1989-08-27T23:23:08.400 ,5,0,0.,24.0,0.,24.0
1989-08-27T23:23:32.400 ,4,1,0.,24.0,0.,24.0
1989-08-27T23:23:56.400 ,4,0,0.,24.0,0.,24.0
1989-08-27T23:24:20.400 ,3,1,0.,24.0,0.,24.0
1989-08-27T23:24:44.400 ,3,0,0.,24.0,0.,24.0
1989-08-27T23:25:08.400 ,2,1,0.,24.0,0.,24.0
1989-08-27T23:25:32.400 ,2,0,0.,24.0,0.,24.0
1989-08-27T23:25:56.400 ,1,1,0.,24.0,0.,24.0
1989-08-27T23:26:20.400 ,1,0,0.,24.0,0.,24.0
1989-08-27T23:26:44.400 ,0,1,0.,24.0,0.,24.0
1989-08-27T23:27:08.400 ,0,0,0.,24.0,0.,24.0
1989-08-27T23:27:32.400 ,0,1,0.,24.0,0.,24.0
1989-08-27T23:27:56.400 ,0,0,0.,24.0,0.,24.0
1989-08-27T23:28:20.400 ,1,1,0.,24.0,0.,24.0
1989-08-27T23:28:44.400 ,1,0,0.,24.0,0.,24.0
1989-08-27T23:29:08.400 ,2,1,0.,24.0,0.,24.0
1989-08-27T23:29:32.400 ,2,0,0.,24.0,0.,24.0
1989-08-27T23:29:56.400 ,3,1,0.,24.0,0.,24.0
1989-08-27T23:30:20.400 ,3,0,0.,24.0,0.,24.0
1989-08-27T23:30:44.400 ,4,1,0.,24.0,0.,24.0
1989-08-27T23:31:08.400 ,4,0,0.,24.0,0.,24.0
1989-08-27T23:31:32.400 ,5,1,0.,24.0,0.,24.0
1989-08-27T23:31:56.400 ,5,0,0.,24.0,0.,24.0
1989-08-27T23:32:20.400 ,6,1,0.,24.0,0.,24.0
1989-08-27T23:32:44.400 ,6,0,0.,24.0,0.,24.0
1989-08-27T23:33:08.400 ,7,1,0.,24.0,0.,24.0
1989-08-27T23:33:32.400 ,7,0,0.,24.0,0.,24.0
1989-08-27T23:33:56.400 ,7,1,0.,24.0,0.,24.0
1989-08-27T23:34:20.400 ,7,0,0.,24.0,0.,24.0
1989-08-27T23:34:44.400 ,6,1,0.,24.0,0.,24.0
1989-08-27T23:35:08.400 ,6,0,0.,24.0,0.,24.0
1989-08-27T23:35:32.400 ,5,1,0.,24.0,0.,24.0
1989-08-27T23:35:56.400 ,5,0,0.,24.0,0.,24.0
1989-08-27T23:36:20.400 ,4,1,0.,24.0,0.,24.0
1989-08-27T23:36:44.400 ,4,0,0.,24.0,0.,24.0
1989-08-27T23:37:08.400 ,3,1,0.,24.0,0.,24.0
1989-08-27T23:37:32.400 ,3,0,0.,24.0,0.,24.0
1989-08-27T23:37:56.400 ,2,1,0.,24.0,0.,24.0
1989-08-27T23:38:20.400 ,2,0,0.,24.0,0.,24.0
1989-08-27T23:38:44.400 ,1,1,0.,24.0,0.,24.0
1989-08-27T23:39:08.400 ,1,0,0.,24.0,0.,24.0
1989-08-27T23:39:32.400 ,0,1,0.,24.0,0.,24.0
1989-08-27T23:39:56.400 ,0,0,0.,24.0,0.,24.0
1989-08-27T23:40:20.400 ,0,1,0.,24.0,0.,24.0
1989-08-27T23:40:44.400 ,0,0,0.,24.0,0.,24.0
1989-08-27T23:41:08.400 ,1,1,0.,24.0,0.,24.0
1989-08-27T23:41:32.400 ,1,0,0.,24.0,0.,24.0
1989-08-27T23:41:56.400 ,2,1,0.,24.0,0.,24.0
1989-08-27T23:42:20.400 ,2,0,0.,24.0,0.,24.0
1989-08-27T23:42:44.400 ,3,1,0.,24.0,0.,24.0
1989-08-27T23:43:08.400 ,3,0,0.,24.0,0.,24.0
1989-08-27T23:43:32.400 ,4,1,0.,24.0,0.,24.0
1989-08-27T23:43:56.400 ,4,0,0.,24.0,0.,24.0
1989-08-27T23:44:20.400 ,5,1,0.,24.0,0.,24.0
1989-08-27T23:44:44.400 ,5,0,0.,24.0,0.,24.0
1989-08-27T23:45:08.400 ,6,1,0.,24.0,0.,24.0
1989-08-27T23:45:32.400 ,6,0,0.,24.0,0.,24.0
1989-08-27T23:45:56.400 ,7,1,0.,24.0,0.,24.0
1989-08-27T23:46:20.400 ,7,0,0.,24.0,0.,24.0
1989-08-27T23:46:44.400 ,7,1,0.,24.0,0.,24.0
1989-08-27T23:47:08.400 ,7,0,0.,24.0,0.,24.0
1989-08-27T23:47:32.400 ,6,1,0.,24.0,0.,24.0
1989-08-27T23:47:56.400 ,6,0,0.,24.0,0.,24.0
1989-08-27T23:48:20.400 ,5,1,0.,24.0,0.,24.0
1989-08-27T23:48:44.400 ,5,0,0.,24.0,0.,24.0
1989-08-27T23:49:08.400 ,4,1,0.,24.0,0.,24.0
1989-08-27T23:49:32.400 ,4,0,0.,24.0,0.,24.0
1989-08-27T23:49:56.400 ,3,1,0.,24.0,0.,24.0
1989-08-27T23:50:20.400 ,3,0,0.,24.0,0.,24.0
1989-08-27T23:50:44.400 ,2,1,0.,24.0,0.,24.0
1989-08-27T23:51:08.400 ,2,0,0.,24.0,0.,24.0
1989-08-27T23:51:32.400 ,1,1,0.,24.0,0.,24.0
1989-08-27T23:51:56.400 ,1,0,0.,24.0,0.,24.0
1989-08-27T23:52:20.400 ,0,1,0.,24.0,0.,24.0
1989-08-27T23:52:44.400 ,0,0,0.,24.0,0.,24.0
1989-08-27T23:53:08.400 ,0,1,0.,24.0,0.,24.0
1989-08-27T23:53:32.400 ,0,0,0.,24.0,0.,24.0
1989-08-27T23:53:56.400 ,1,1,0.,24.0,0.,24.0
1989-08-27T23:54:20.400 ,1,0,0.,24.0,0.,24.0
1989-08-27T23:54:44.400 ,2,1,0.,24.0,0.,24.0
1989-08-27T23:55:08.400 ,2,0,0.,24.0,0.,24.0
1989-08-27T23:55:32.400 ,3,1,0.,24.0,0.,24.0
1989-08-27T23:55:56.400 ,3,0,0.,24.0,0.,24.0
1989-08-27T23:56:20.400 ,4,1,0.,24.0,0.,24.0
1989-08-27T23:56:44.400 ,4,0,0.,24.0,0.,24.0
1989-08-27T23:57:08.400 ,5,1,0.,24.0,0.,24.0
1989-08-27T23:57:32.400 ,5,0,0.,24.0,0.,24.0
1989-08-27T23:57:56.400 ,6,1,0.,24.0,0.,24.0
1989-08-27T23:58:20.400 ,6,0,0.,24.0,0.,24.0
1989-08-27T23:58:44.400 ,7,1,0.,24.0,0.,24.0
1989-08-27T23:59:08.400 ,7,0,0.,24.0,0.,24.0
1989-08-27T23:59:32.400 ,7,1,0.,24.0,0.,24.0
1989-08-27T23:59:56.400 ,7,0,0.,24.0,0.,24.0
1989-08-28T00:00:20.400 ,6,1,0.,24.0,0.,24.0
